,,,PA_Meas_PMT16A,,PR_Meas_QMR101_102,,RH_Meas_QMH101,,SR_Meas_QMS101,,TA_Meas_QMH101,,GenWind,,GenWind,
date,time,status,PA,status,PR,status,RH,status,SR,status,TA,status,DirAvg,status,SpdAvg,
2010-12-31, 00:00:04,VALID,1002.39,VALID,0,INVALID,163.769,VALID,0,VALID,23.3143,VALID,355,VALID,0,
2010-12-31, 00:01:04,VALID,1002.38,VALID,0,INVALID,163.762,VALID,0.100563,VALID,23.2541,VALID,355,VALID,0,
2010-12-31, 00:02:04,VALID,1002.36,VALID,0,INVALID,163.784,VALID,0,VALID,23.2541,VALID,355,VALID,0,
2010-12-31, 00:03:04,VALID,1002.36,VALID,0,INVALID,163.769,VALID,0.100563,VALID,23.2541,VALID,355,VALID,0,
2010-12-31, 00:04:04,VALID,1002.37,VALID,0,INVALID,163.769,VALID,0,VALID,23.2948,VALID,355,VALID,0,
2010-12-31, 00:05:04,VALID,1002.36,VALID,0,INVALID,163.739,VALID,0.100563,VALID,23.2931,VALID,355,VALID,0,
2010-12-31, 00:06:04,VALID,1002.35,VALID,0,INVALID,163.784,VALID,0,VALID,23.2736,VALID,355,VALID,0,
2010-12-31, 00:07:04,VALID,1002.31,VALID,0,INVALID,163.777,VALID,0,VALID,23.2931,VALID,355,VALID,0,
2010-12-31, 00:08:04,VALID,1002.32,VALID,0,INVALID,163.792,VALID,0,VALID,23.3143,VALID,355,VALID,0,
2010-12-31, 00:09:04,VALID,1002.31,VALID,0,INVALID,163.762,VALID,0,VALID,23.2931,VALID,355,VALID,0,
2010-12-31, 00:10:04,VALID,1002.29,VALID,0,INVALID,163.769,VALID,0,VALID,23.2931,VALID,355,VALID,0,
2010-12-31, 00:11:04,VALID,1002.27,VALID,0,INVALID,163.8,VALID,0,VALID,23.2524,VALID,355,VALID,0,
2010-12-31, 00:12:04,VALID,1002.3,VALID,0,INVALID,163.784,VALID,0,VALID,23.2347,VALID,355,VALID,0,
2010-12-31, 00:13:04,VALID,1002.28,VALID,0,INVALID,163.792,VALID,0.100563,VALID,23.2152,VALID,355,VALID,0,
2010-12-31, 00:14:04,VALID,1002.25,VALID,0,INVALID,163.784,VALID,0.100563,VALID,23.1763,VALID,355,VALID,0,
2010-12-31, 00:15:04,VALID,1002.22,VALID,0,INVALID,163.777,VALID,0.100563,VALID,23.1568,VALID,355,VALID,0,
2010-12-31, 00:16:04,VALID,1002.22,VALID,0,INVALID,163.792,VALID,0,VALID,23.1179,VALID,355,VALID,0,
2010-12-31, 00:17:04,VALID,1002.21,VALID,0,INVALID,163.784,VALID,0,VALID,23.0984,VALID,355,VALID,0,
2010-12-31, 00:18:04,VALID,1002.18,VALID,0,INVALID,163.777,VALID,0,VALID,23.0383,VALID,355,VALID,0,
2010-12-31, 00:19:04,VALID,1002.14,VALID,0,INVALID,163.777,VALID,0,VALID,23.079,VALID,357,VALID,0,
2010-12-31, 00:20:04,VALID,1002.13,VALID,0,INVALID,163.769,VALID,0,VALID,23.079,VALID,357,VALID,0,
2010-12-31, 00:21:04,VALID,1002.12,VALID,0,INVALID,163.762,VALID,0.100563,VALID,23.0772,VALID,357,VALID,0,
2010-12-31, 00:22:04,VALID,1002.1,VALID,0,INVALID,163.784,VALID,0,VALID,23.0984,VALID,357,VALID,0,
2010-12-31, 00:23:04,VALID,1002.09,VALID,0,INVALID,163.777,VALID,0,VALID,23.0772,VALID,357,VALID,0,
2010-12-31, 00:24:04,VALID,1002.05,VALID,0,INVALID,163.769,VALID,0,VALID,23.0772,VALID,357,VALID,0,
2010-12-31, 00:25:04,VALID,1002.04,VALID,0,INVALID,163.815,VALID,0,VALID,23.0807,VALID,357,VALID,0,
2010-12-31, 00:26:04,VALID,1002.03,VALID,0,INVALID,163.807,VALID,0,VALID,23.0401,VALID,357,VALID,0,
2010-12-31, 00:27:04,VALID,1001.98,VALID,0,INVALID,163.784,VALID,0,VALID,23.0418,VALID,357,VALID,0,
2010-12-31, 00:28:04,VALID,1001.99,VALID,0,INVALID,163.792,VALID,0,VALID,23.0224,VALID,357,VALID,0,
2010-12-31, 00:29:04,VALID,1001.95,VALID,0,INVALID,163.769,VALID,0,VALID,23.0029,VALID,357,VALID,0,
2010-12-31, 00:30:04,VALID,1001.94,VALID,0,INVALID,163.792,VALID,0,VALID,22.9834,VALID,357,VALID,0,
2010-12-31, 00:31:04,VALID,1001.94,VALID,0,INVALID,163.815,VALID,0,VALID,22.9834,VALID,357,VALID,0,
2010-12-31, 00:32:04,VALID,1001.89,VALID,0,INVALID,163.777,VALID,0,VALID,22.9445,VALID,357,VALID,0,
2010-12-31, 00:33:04,VALID,1001.91,VALID,0,INVALID,163.792,VALID,0,VALID,22.9233,VALID,357,VALID,0,
2010-12-31, 00:34:04,VALID,1001.88,VALID,0,INVALID,163.823,VALID,0,VALID,22.8844,VALID,357,VALID,0,
2010-12-31, 00:35:04,VALID,1001.84,VALID,0,INVALID,163.777,VALID,0,VALID,22.8861,VALID,357,VALID,0,
2010-12-31, 00:36:04,VALID,1001.83,VALID,0,INVALID,163.815,VALID,0,VALID,22.8667,VALID,357,VALID,0,
2010-12-31, 00:37:04,VALID,1001.79,VALID,0,INVALID,163.823,VALID,0,VALID,22.8667,VALID,357,VALID,0,
2010-12-31, 00:38:04,VALID,1001.75,VALID,0,INVALID,163.815,VALID,0,VALID,22.8667,VALID,357,VALID,0,
2010-12-31, 00:39:04,VALID,1001.75,VALID,0,INVALID,163.815,VALID,0,VALID,22.8278,VALID,357,VALID,0,
2010-12-31, 00:40:04,VALID,1001.71,VALID,0,INVALID,163.823,VALID,0,VALID,22.8048,VALID,357,VALID,0,
2010-12-31, 00:41:04,VALID,1001.67,VALID,0,INVALID,163.792,VALID,0,VALID,22.8278,VALID,357,VALID,0,
2010-12-31, 00:42:04,VALID,1001.68,VALID,0,INVALID,163.792,VALID,0,VALID,22.7677,VALID,357,VALID,0,
2010-12-31, 00:43:04,VALID,1001.63,VALID,0,INVALID,163.807,VALID,0,VALID,22.7871,VALID,357,VALID,0,
2010-12-31, 00:44:04,VALID,1001.62,VALID,0,INVALID,163.815,VALID,0,VALID,22.7465,VALID,357,VALID,0,
2010-12-31, 00:45:04,VALID,1001.59,VALID,0,INVALID,163.838,VALID,0,VALID,22.7677,VALID,357,VALID,0,
2010-12-31, 00:46:04,VALID,1001.57,VALID,0,INVALID,163.807,VALID,0,VALID,22.7659,VALID,357,VALID,0,
2010-12-31, 00:47:04,VALID,1001.56,VALID,0,INVALID,163.838,VALID,0,VALID,22.7871,VALID,357,VALID,0,
2010-12-31, 00:48:04,VALID,1001.56,VALID,0,INVALID,163.815,VALID,0,VALID,22.7871,VALID,357,VALID,0,
2010-12-31, 00:49:04,VALID,1001.52,VALID,0,INVALID,163.8,VALID,0,VALID,22.7871,VALID,357,VALID,0,
2010-12-31, 00:50:04,VALID,1001.49,VALID,0,INVALID,163.784,VALID,0.100563,VALID,22.7677,VALID,357,VALID,0,
2010-12-31, 00:51:04,VALID,1001.45,VALID,0,INVALID,163.838,VALID,0.100563,VALID,22.7677,VALID,357,VALID,0,
2010-12-31, 00:52:04,VALID,1001.42,VALID,0,INVALID,163.815,VALID,0,VALID,22.7482,VALID,357,VALID,0,
2010-12-31, 00:53:04,VALID,1001.34,VALID,0,INVALID,163.815,VALID,0.100563,VALID,22.7482,VALID,357,VALID,0,
2010-12-31, 00:54:04,VALID,1001.31,VALID,0,INVALID,163.823,VALID,0,VALID,22.7482,VALID,357,VALID,0,
2010-12-31, 00:55:04,VALID,1001.28,VALID,0,INVALID,163.792,VALID,0.100563,VALID,22.6881,VALID,357,VALID,0,
2010-12-31, 00:56:04,VALID,1001.27,VALID,0,INVALID,163.83,VALID,0,VALID,22.7093,VALID,357,VALID,0,
2010-12-31, 00:57:04,VALID,1001.24,VALID,0,INVALID,163.807,VALID,0.100563,VALID,22.6704,VALID,357,VALID,0,
2010-12-31, 00:58:04,VALID,1001.21,VALID,0,INVALID,163.815,VALID,0.100563,VALID,22.6509,VALID,357,VALID,0,
2010-12-31, 00:59:04,VALID,1001.23,VALID,0,INVALID,163.792,VALID,0,VALID,22.6509,VALID,357,VALID,0,
2010-12-31, 01:00:04,VALID,1001.22,VALID,0,INVALID,163.83,VALID,0.100563,VALID,22.6315,VALID,357,VALID,0,
2010-12-31, 01:01:04,VALID,1001.21,VALID,0,INVALID,163.823,VALID,0.100563,VALID,22.6315,VALID,357,VALID,0,
2010-12-31, 01:02:04,VALID,1001.2,VALID,0,INVALID,163.807,VALID,0.100563,VALID,22.6103,VALID,357,VALID,0,
2010-12-31, 01:03:04,VALID,1001.19,VALID,0,INVALID,163.823,VALID,0,VALID,22.6509,VALID,357,VALID,0,
2010-12-31, 01:04:04,VALID,1001.15,VALID,0,INVALID,163.83,VALID,0,VALID,22.6297,VALID,357,VALID,0,
2010-12-31, 01:05:04,VALID,1001.15,VALID,0,INVALID,163.83,VALID,0,VALID,22.6103,VALID,357,VALID,0,
2010-12-31, 01:06:04,VALID,1001.15,VALID,0,INVALID,163.815,VALID,0.100563,VALID,22.6315,VALID,357,VALID,0,
2010-12-31, 01:07:04,VALID,1001.12,VALID,0,INVALID,163.823,VALID,0.100563,VALID,22.6103,VALID,357,VALID,0,
2010-12-31, 01:08:04,VALID,1001.09,VALID,0,INVALID,163.807,VALID,0,VALID,22.6315,VALID,357,VALID,0,
2010-12-31, 01:09:04,VALID,1001.06,VALID,0,INVALID,163.823,VALID,0,VALID,22.612,VALID,357,VALID,0,
2010-12-31, 01:10:04,VALID,1001.02,VALID,0,INVALID,163.815,VALID,0,VALID,22.6137,VALID,357,VALID,0,
2010-12-31, 01:11:04,VALID,1000.97,VALID,0,INVALID,163.823,VALID,0,VALID,22.6137,VALID,357,VALID,0,
2010-12-31, 01:12:04,VALID,1000.95,VALID,0,INVALID,163.845,VALID,0,VALID,22.6137,VALID,357,VALID,0,
2010-12-31, 01:13:04,VALID,1000.93,VALID,0,INVALID,163.838,VALID,0,VALID,22.5731,VALID,357,VALID,0,
2010-12-31, 01:14:04,VALID,1000.92,VALID,0,INVALID,163.845,VALID,0,VALID,22.5536,VALID,357,VALID,0,
2010-12-31, 01:15:04,VALID,1000.87,VALID,0,INVALID,163.838,VALID,0,VALID,22.5748,VALID,357,VALID,0,
2010-12-31, 01:16:04,VALID,1000.86,VALID,0,INVALID,163.838,VALID,0,VALID,22.5536,VALID,357,VALID,0,
2010-12-31, 01:17:04,VALID,1000.83,VALID,0,INVALID,163.838,VALID,0,VALID,22.5342,VALID,357,VALID,0,
2010-12-31, 01:18:04,VALID,1000.79,VALID,0,INVALID,163.815,VALID,0,VALID,22.5342,VALID,357,VALID,0,
2010-12-31, 01:19:04,VALID,1000.81,VALID,0,INVALID,163.861,VALID,0,VALID,22.5359,VALID,357,VALID,0,
2010-12-31, 01:20:04,VALID,1000.78,VALID,0,INVALID,163.861,VALID,0,VALID,22.5147,VALID,357,VALID,0,
2010-12-31, 01:21:04,VALID,1000.78,VALID,0,INVALID,163.83,VALID,0,VALID,22.5147,VALID,358,VALID,0,
2010-12-31, 01:22:04,VALID,1000.76,VALID,0,INVALID,163.807,VALID,0,VALID,22.5553,VALID,14,VALID,0,
2010-12-31, 01:23:04,VALID,1000.76,VALID,0,INVALID,163.815,VALID,0,VALID,22.5342,VALID,14,VALID,0,
2010-12-31, 01:24:04,VALID,1000.71,VALID,0,INVALID,163.83,VALID,0.100563,VALID,22.5342,VALID,14,VALID,0,
2010-12-31, 01:25:04,VALID,1000.71,VALID,0,INVALID,163.838,VALID,0,VALID,22.4936,VALID,14,VALID,0,
2010-12-31, 01:26:04,VALID,1000.68,VALID,0,INVALID,163.861,VALID,0,VALID,22.4953,VALID,14,VALID,0,
2010-12-31, 01:27:04,VALID,1000.67,VALID,0,INVALID,163.845,VALID,0,VALID,22.458,VALID,14,VALID,0,
2010-12-31, 01:28:04,VALID,1000.67,VALID,0,INVALID,163.868,VALID,0,VALID,22.4369,VALID,14,VALID,0,
2010-12-31, 01:29:04,VALID,1000.66,VALID,0,INVALID,163.845,VALID,0,VALID,22.4775,VALID,14,VALID,0,
2010-12-31, 01:30:04,VALID,1000.64,VALID,0,INVALID,163.853,VALID,0,VALID,22.4758,VALID,14,VALID,0,
2010-12-31, 01:31:04,VALID,1000.64,VALID,0,INVALID,163.838,VALID,0,VALID,22.4563,VALID,14,VALID,0,
2010-12-31, 01:32:04,VALID,1000.61,VALID,0,INVALID,163.823,VALID,0,VALID,22.4775,VALID,14,VALID,0,
2010-12-31, 01:33:04,VALID,1000.6,VALID,0,INVALID,163.823,VALID,0,VALID,22.4758,VALID,14,VALID,0,
2010-12-31, 01:34:04,VALID,1000.59,VALID,0,INVALID,163.83,VALID,0,VALID,22.4758,VALID,14,VALID,0,
2010-12-31, 01:35:04,VALID,1000.58,VALID,0,INVALID,163.845,VALID,0,VALID,22.4758,VALID,14,VALID,0,
2010-12-31, 01:36:04,VALID,1000.57,VALID,0,INVALID,163.845,VALID,0,VALID,22.4775,VALID,14,VALID,0,
2010-12-31, 01:37:04,VALID,1000.55,VALID,0,INVALID,163.823,VALID,0,VALID,22.497,VALID,14,VALID,0,
2010-12-31, 01:38:04,VALID,1000.51,VALID,0,INVALID,163.845,VALID,0,VALID,22.4758,VALID,14,VALID,0,
2010-12-31, 01:39:04,VALID,1000.47,VALID,0,INVALID,163.815,VALID,0,VALID,22.4352,VALID,14,VALID,0,
2010-12-31, 01:40:04,VALID,1000.45,VALID,0,INVALID,163.815,VALID,0,VALID,22.4775,VALID,14,VALID,0,
2010-12-31, 01:41:04,VALID,1000.43,VALID,0,INVALID,163.838,VALID,0,VALID,22.4758,VALID,11,VALID,0,
2010-12-31, 01:42:04,VALID,1000.39,VALID,0,INVALID,163.838,VALID,0,VALID,22.4758,VALID,11,VALID,0,
2010-12-31, 01:43:04,VALID,1000.38,VALID,0,INVALID,163.845,VALID,0,VALID,22.4758,VALID,11,VALID,0,
2010-12-31, 01:44:04,VALID,1000.36,VALID,0,INVALID,163.838,VALID,0,VALID,22.4775,VALID,11,VALID,0,
2010-12-31, 01:45:04,VALID,1000.33,VALID,0,INVALID,163.853,VALID,0,VALID,22.4775,VALID,11,VALID,0,
2010-12-31, 01:46:04,VALID,1000.31,VALID,0,INVALID,163.868,VALID,0,VALID,22.4775,VALID,11,VALID,0,
2010-12-31, 01:47:04,VALID,1000.3,VALID,0,INVALID,163.83,VALID,0,VALID,22.458,VALID,11,VALID,0,
2010-12-31, 01:48:04,VALID,1000.27,VALID,0,INVALID,163.83,VALID,0,VALID,22.458,VALID,11,VALID,0,
2010-12-31, 01:49:04,VALID,1000.26,VALID,0,INVALID,163.853,VALID,0,VALID,22.4174,VALID,11,VALID,0,
2010-12-31, 01:50:04,VALID,1000.26,VALID,0,INVALID,163.845,VALID,0,VALID,22.4191,VALID,11,VALID,0,
2010-12-31, 01:51:04,VALID,1000.22,VALID,0,INVALID,163.845,VALID,0,VALID,22.4386,VALID,11,VALID,0,
2010-12-31, 01:52:04,VALID,1000.22,VALID,0,INVALID,163.838,VALID,0,VALID,22.4174,VALID,11,VALID,0,
2010-12-31, 01:53:04,VALID,1000.22,VALID,0,INVALID,163.838,VALID,0,VALID,22.4386,VALID,7,VALID,0.00976563,
2010-12-31, 01:54:04,VALID,1000.17,VALID,0,INVALID,163.807,VALID,0,VALID,22.458,VALID,10,VALID,0.558594,
2010-12-31, 01:55:04,VALID,1000.22,VALID,0,INVALID,163.868,VALID,0,VALID,22.4563,VALID,8,VALID,0.501953,
2010-12-31, 01:56:04,VALID,1000.18,VALID,0,INVALID,163.845,VALID,0,VALID,22.497,VALID,8,VALID,0.339453,
2010-12-31, 01:57:04,VALID,1000.19,VALID,0,INVALID,163.807,VALID,0,VALID,22.4758,VALID,8,VALID,0.355078,
2010-12-31, 01:58:04,VALID,1000.18,VALID,0,INVALID,163.838,VALID,0,VALID,22.4953,VALID,8,VALID,0.178906,
2010-12-31, 01:59:04,VALID,1000.17,VALID,0,INVALID,163.838,VALID,0,VALID,22.4758,VALID,8,VALID,0.278125,
2010-12-31, 02:00:04,VALID,1000.16,VALID,0,INVALID,163.83,VALID,0,VALID,22.497,VALID,8,VALID,0.283594,
2010-12-31, 02:01:04,VALID,1000.13,VALID,0,INVALID,163.823,VALID,0,VALID,22.4369,VALID,8,VALID,0.384375,
2010-12-31, 02:02:04,VALID,1000.15,VALID,0,INVALID,163.815,VALID,0,VALID,22.4191,VALID,8,VALID,0.605078,
2010-12-31, 02:03:04,VALID,1000.14,VALID,0,INVALID,163.868,VALID,0,VALID,22.4191,VALID,8,VALID,0.552734,
2010-12-31, 02:04:04,VALID,1000.14,VALID,0,INVALID,163.845,VALID,0,VALID,22.3785,VALID,8,VALID,0.624609,
2010-12-31, 02:05:04,VALID,1000.14,VALID,0,INVALID,163.838,VALID,0,VALID,22.3591,VALID,8,VALID,0.556641,
2010-12-31, 02:06:04,VALID,1000.12,VALID,0,INVALID,163.838,VALID,0,VALID,22.3396,VALID,8,VALID,0.607031,
2010-12-31, 02:07:04,VALID,1000.12,VALID,0,INVALID,163.861,VALID,0,VALID,22.3202,VALID,8,VALID,0.560156,
2010-12-31, 02:08:04,VALID,1000.08,VALID,0,INVALID,163.853,VALID,0,VALID,22.3202,VALID,8,VALID,0.578906,
2010-12-31, 02:09:04,VALID,1000.08,VALID,0,INVALID,163.861,VALID,0,VALID,22.3007,VALID,6,VALID,0.476172,
2010-12-31, 02:10:04,VALID,1000.05,VALID,0,INVALID,163.853,VALID,0,VALID,22.3007,VALID,6,VALID,0.704297,
2010-12-31, 02:11:04,VALID,1000.06,VALID,0,INVALID,163.853,VALID,0,VALID,22.3024,VALID,8,VALID,0.805469,
2010-12-31, 02:12:04,VALID,1000.07,VALID,0,INVALID,163.853,VALID,0,VALID,22.3007,VALID,16,VALID,0.790625,
2010-12-31, 02:13:04,VALID,1000.06,VALID,0,INVALID,163.876,VALID,0,VALID,22.3202,VALID,21,VALID,0.777344,
2010-12-31, 02:14:04,VALID,1000.08,VALID,0,INVALID,163.853,VALID,0,VALID,22.3396,VALID,22,VALID,0.717578,
2010-12-31, 02:15:04,VALID,1000.05,VALID,0,INVALID,163.83,VALID,0,VALID,22.3396,VALID,22,VALID,0.662891,
2010-12-31, 02:16:04,VALID,1000.06,VALID,0,INVALID,163.868,VALID,0,VALID,22.3997,VALID,22,VALID,0.687109,
2010-12-31, 02:17:04,VALID,1000.06,VALID,0,INVALID,163.868,VALID,0,VALID,22.3785,VALID,13,VALID,0.580859,
2010-12-31, 02:18:04,VALID,1000.07,VALID,0,INVALID,163.815,VALID,0,VALID,22.4174,VALID,12,VALID,0.510156,
2010-12-31, 02:19:04,VALID,1000.05,VALID,0,INVALID,163.845,VALID,0,VALID,22.4191,VALID,12,VALID,0.598437,
2010-12-31, 02:20:04,VALID,1000.06,VALID,0,INVALID,163.853,VALID,0,VALID,22.398,VALID,11,VALID,0.564453,
2010-12-31, 02:21:04,VALID,1000.09,VALID,0,INVALID,163.838,VALID,0,VALID,22.4174,VALID,11,VALID,0.568359,
2010-12-31, 02:22:04,VALID,1000.05,VALID,0,INVALID,163.845,VALID,0,VALID,22.398,VALID,12,VALID,0.659766,
2010-12-31, 02:23:04,VALID,1000.05,VALID,0,INVALID,163.861,VALID,0,VALID,22.398,VALID,12,VALID,0.565234,
2010-12-31, 02:24:04,VALID,1000.04,VALID,0,INVALID,163.845,VALID,0,VALID,22.3997,VALID,12,VALID,0.569531,
2010-12-31, 02:25:04,VALID,1000.02,VALID,0,INVALID,163.845,VALID,0,VALID,22.3785,VALID,12,VALID,0.535547,
2010-12-31, 02:26:04,VALID,1000.02,VALID,0,INVALID,163.845,VALID,0,VALID,22.398,VALID,12,VALID,0.547266,
2010-12-31, 02:27:04,VALID,999.991,VALID,0,INVALID,163.845,VALID,0,VALID,22.3997,VALID,12,VALID,0.564453,
2010-12-31, 02:28:04,VALID,1000,VALID,0,INVALID,163.838,VALID,0,VALID,22.3997,VALID,12,VALID,0.542969,
2010-12-31, 02:29:04,VALID,1000.02,VALID,0,INVALID,163.884,VALID,0,VALID,22.3785,VALID,12,VALID,0.495703,
2010-12-31, 02:30:04,VALID,999.988,VALID,0,INVALID,163.845,VALID,0,VALID,22.398,VALID,12,VALID,0.458984,
2010-12-31, 02:31:04,VALID,999.956,VALID,0,INVALID,163.845,VALID,0,VALID,22.3785,VALID,12,VALID,0.535547,
2010-12-31, 02:32:04,VALID,999.931,VALID,0,INVALID,163.845,VALID,0,VALID,22.3785,VALID,12,VALID,0.5625,
2010-12-31, 02:33:04,VALID,999.929,VALID,0,INVALID,163.845,VALID,0,VALID,22.398,VALID,12,VALID,0.628516,
2010-12-31, 02:34:04,VALID,999.897,VALID,0,INVALID,163.838,VALID,0,VALID,22.4174,VALID,11,VALID,0.489062,
2010-12-31, 02:35:04,VALID,999.885,VALID,0,INVALID,163.83,VALID,0,VALID,22.4563,VALID,9,VALID,0.436719,
2010-12-31, 02:36:04,VALID,999.85,VALID,0,INVALID,163.838,VALID,0,VALID,22.4758,VALID,350,VALID,0.522656,
2010-12-31, 02:37:04,VALID,999.824,VALID,0,INVALID,163.838,VALID,0,VALID,22.4758,VALID,350,VALID,0.512109,
2010-12-31, 02:38:04,VALID,999.763,VALID,0,INVALID,163.83,VALID,0,VALID,22.4369,VALID,350,VALID,0.501172,
2010-12-31, 02:39:04,VALID,999.741,VALID,0,INVALID,163.83,VALID,0,VALID,22.4174,VALID,350,VALID,0.484375,
2010-12-31, 02:40:04,VALID,999.731,VALID,0,INVALID,163.823,VALID,0,VALID,22.3963,VALID,350,VALID,0.475391,
2010-12-31, 02:41:04,VALID,999.706,VALID,0,INVALID,163.845,VALID,0,VALID,22.3997,VALID,350,VALID,0.491406,
2010-12-31, 02:42:04,VALID,999.719,VALID,0,INVALID,163.853,VALID,0,VALID,22.3785,VALID,350,VALID,0.417969,
2010-12-31, 02:43:04,VALID,999.695,VALID,0,INVALID,163.845,VALID,0,VALID,22.3396,VALID,350,VALID,0.520312,
2010-12-31, 02:44:04,VALID,999.67,VALID,0,INVALID,163.838,VALID,0,VALID,22.3802,VALID,350,VALID,0.321875,
2010-12-31, 02:45:04,VALID,999.665,VALID,0,INVALID,163.838,VALID,0,VALID,22.3608,VALID,350,VALID,0.367969,
2010-12-31, 02:46:04,VALID,999.665,VALID,0,INVALID,163.823,VALID,0,VALID,22.3396,VALID,350,VALID,0.355469,
2010-12-31, 02:47:04,VALID,999.647,VALID,0,INVALID,163.861,VALID,0,VALID,22.3202,VALID,350,VALID,0.437109,
2010-12-31, 02:48:04,VALID,999.669,VALID,0,INVALID,163.861,VALID,0,VALID,22.3007,VALID,350,VALID,0.524609,
2010-12-31, 02:49:04,VALID,999.663,VALID,0,INVALID,163.884,VALID,0,VALID,22.2601,VALID,350,VALID,0.555469,
2010-12-31, 02:50:04,VALID,999.657,VALID,0,INVALID,163.853,VALID,0,VALID,22.3024,VALID,351,VALID,0.564453,
2010-12-31, 02:51:04,VALID,999.656,VALID,0,INVALID,163.876,VALID,0,VALID,22.2829,VALID,350,VALID,0.687891,
2010-12-31, 02:52:04,VALID,999.648,VALID,0,INVALID,163.853,VALID,0,VALID,22.2229,VALID,350,VALID,0.574219,
2010-12-31, 02:53:04,VALID,999.64,VALID,0,INVALID,163.876,VALID,0,VALID,22.2229,VALID,350,VALID,0.497656,
2010-12-31, 02:54:04,VALID,999.612,VALID,0,INVALID,163.853,VALID,0,VALID,22.2635,VALID,350,VALID,0.460938,
2010-12-31, 02:55:04,VALID,999.626,VALID,0,INVALID,163.853,VALID,0,VALID,22.2812,VALID,350,VALID,0.555078,
2010-12-31, 02:56:04,VALID,999.632,VALID,0,INVALID,163.853,VALID,0,VALID,22.343,VALID,350,VALID,0.602734,
2010-12-31, 02:57:04,VALID,999.636,VALID,0,INVALID,163.845,VALID,0,VALID,22.3396,VALID,350,VALID,0.651172,
2010-12-31, 02:58:04,VALID,999.621,VALID,0,INVALID,163.845,VALID,0,VALID,22.3785,VALID,350,VALID,0.519141,
2010-12-31, 02:59:04,VALID,999.636,VALID,0,INVALID,163.853,VALID,0,VALID,22.3591,VALID,350,VALID,0.644922,
2010-12-31, 03:00:04,VALID,999.651,VALID,0,INVALID,163.861,VALID,0,VALID,22.3202,VALID,350,VALID,0.569141,
2010-12-31, 03:01:04,VALID,999.656,VALID,0,INVALID,163.861,VALID,0,VALID,22.2796,VALID,358,VALID,0.673828,
2010-12-31, 03:02:04,VALID,999.642,VALID,0,INVALID,163.845,VALID,0,VALID,22.2812,VALID,2,VALID,0.767578,
2010-12-31, 03:03:04,VALID,999.651,VALID,0,INVALID,163.83,VALID,0,VALID,22.3007,VALID,3,VALID,0.669531,
2010-12-31, 03:04:04,VALID,999.649,VALID,0,INVALID,163.845,VALID,0,VALID,22.2618,VALID,4,VALID,0.734375,
2010-12-31, 03:05:04,VALID,999.645,VALID,0,INVALID,163.838,VALID,0,VALID,22.244,VALID,4,VALID,0.66875,
2010-12-31, 03:06:04,VALID,999.644,VALID,0,INVALID,163.868,VALID,0,VALID,22.2229,VALID,4,VALID,0.719922,
2010-12-31, 03:07:04,VALID,999.639,VALID,0,INVALID,163.845,VALID,0,VALID,22.184,VALID,4,VALID,0.726172,
2010-12-31, 03:08:04,VALID,999.62,VALID,0,INVALID,163.868,VALID,0,VALID,22.1857,VALID,4,VALID,0.797656,
2010-12-31, 03:09:04,VALID,999.624,VALID,0,INVALID,163.876,VALID,0.100563,VALID,22.1434,VALID,4,VALID,0.813281,
2010-12-31, 03:10:04,VALID,999.609,VALID,0,INVALID,163.868,VALID,0,VALID,22.1451,VALID,4,VALID,0.723437,
2010-12-31, 03:11:04,VALID,999.641,VALID,0,INVALID,163.884,VALID,0,VALID,22.1645,VALID,4,VALID,0.627344,
2010-12-31, 03:12:04,VALID,999.611,VALID,0,INVALID,163.853,VALID,0,VALID,22.1645,VALID,4,VALID,0.730469,
2010-12-31, 03:13:04,VALID,999.637,VALID,0,INVALID,163.853,VALID,0,VALID,22.1645,VALID,4,VALID,0.641406,
2010-12-31, 03:14:04,VALID,999.634,VALID,0,INVALID,163.853,VALID,0,VALID,22.1451,VALID,4,VALID,0.549219,
2010-12-31, 03:15:04,VALID,999.648,VALID,0,INVALID,163.83,VALID,0,VALID,22.1451,VALID,4,VALID,0.509375,
2010-12-31, 03:16:04,VALID,999.635,VALID,0,INVALID,163.868,VALID,0,VALID,22.1045,VALID,4,VALID,0.374219,
2010-12-31, 03:17:04,VALID,999.656,VALID,0,INVALID,163.868,VALID,0,VALID,22.0867,VALID,4,VALID,0.268359,
2010-12-31, 03:18:04,VALID,999.637,VALID,0,INVALID,163.876,VALID,0,VALID,22.0867,VALID,4,VALID,0.446875,
2010-12-31, 03:19:04,VALID,999.649,VALID,0,INVALID,163.861,VALID,0,VALID,22.0867,VALID,4,VALID,0.375391,
2010-12-31, 03:20:04,VALID,999.68,VALID,0,INVALID,163.845,VALID,0,VALID,22.0867,VALID,4,VALID,0.536328,
2010-12-31, 03:21:04,VALID,999.688,VALID,0,INVALID,163.861,VALID,0,VALID,22.1273,VALID,4,VALID,0.559766,
2010-12-31, 03:22:04,VALID,999.662,VALID,0,INVALID,163.853,VALID,0,VALID,22.0867,VALID,4,VALID,0.540625,
2010-12-31, 03:23:04,VALID,999.674,VALID,0,INVALID,163.868,VALID,0,VALID,22.1078,VALID,4,VALID,0.522266,
2010-12-31, 03:24:04,VALID,999.649,VALID,0,INVALID,163.876,VALID,0,VALID,22.0689,VALID,4,VALID,0.455469,
2010-12-31, 03:25:04,VALID,999.657,VALID,0,INVALID,163.884,VALID,0,VALID,22.0689,VALID,4,VALID,0.513281,
2010-12-31, 03:26:04,VALID,999.628,VALID,0,INVALID,163.853,VALID,0,VALID,22.0689,VALID,4,VALID,0.569531,
2010-12-31, 03:27:04,VALID,999.61,VALID,0,INVALID,163.868,VALID,0,VALID,22.0672,VALID,4,VALID,0.330469,
2010-12-31, 03:28:04,VALID,999.633,VALID,0,INVALID,163.853,VALID,0,VALID,22.0884,VALID,4,VALID,0.385156,
2010-12-31, 03:29:04,VALID,999.626,VALID,0,INVALID,163.83,VALID,0,VALID,22.0461,VALID,4,VALID,0.333203,
2010-12-31, 03:30:04,VALID,999.633,VALID,0,INVALID,163.845,VALID,0,VALID,22.0478,VALID,4,VALID,0.230469,
2010-12-31, 03:31:04,VALID,999.638,VALID,0,INVALID,163.868,VALID,0,VALID,22.0495,VALID,4,VALID,0.349609,
2010-12-31, 03:32:04,VALID,999.63,VALID,0,INVALID,163.868,VALID,0,VALID,22.0283,VALID,4,VALID,0.240625,
2010-12-31, 03:33:04,VALID,999.642,VALID,0,INVALID,163.868,VALID,0,VALID,22.0495,VALID,4,VALID,0.190234,
2010-12-31, 03:34:04,VALID,999.598,VALID,0,INVALID,163.876,VALID,0,VALID,22.0283,VALID,4,VALID,0.242188,
2010-12-31, 03:35:04,VALID,999.605,VALID,0,INVALID,163.861,VALID,0,VALID,22.0089,VALID,4,VALID,0.319141,
2010-12-31, 03:36:04,VALID,999.584,VALID,0,INVALID,163.884,VALID,0,VALID,22.0089,VALID,4,VALID,0.485156,
2010-12-31, 03:37:04,VALID,999.573,VALID,0,INVALID,163.876,VALID,0,VALID,22.0495,VALID,4,VALID,0.376953,
2010-12-31, 03:38:04,VALID,999.598,VALID,0,INVALID,163.876,VALID,0,VALID,22.03,VALID,4,VALID,0.299219,
2010-12-31, 03:39:04,VALID,999.559,VALID,0,INVALID,163.861,VALID,0,VALID,22.03,VALID,4,VALID,0.387109,
2010-12-31, 03:40:04,VALID,999.562,VALID,0,INVALID,163.861,VALID,0,VALID,22.0089,VALID,4,VALID,0.369531,
2010-12-31, 03:41:04,VALID,999.551,VALID,0,INVALID,163.853,VALID,0,VALID,22.03,VALID,4,VALID,0.353906,
2010-12-31, 03:42:04,VALID,999.578,VALID,0,INVALID,163.861,VALID,0,VALID,22.0089,VALID,4,VALID,0.190625,
2010-12-31, 03:43:04,VALID,999.596,VALID,0,INVALID,163.861,VALID,0,VALID,22.0106,VALID,4,VALID,0.338281,
2010-12-31, 03:44:04,VALID,999.623,VALID,0,INVALID,163.853,VALID,0,VALID,21.9505,VALID,4,VALID,0.278125,
2010-12-31, 03:45:04,VALID,999.655,VALID,0,INVALID,163.884,VALID,0,VALID,21.8922,VALID,4,VALID,0.328516,
2010-12-31, 03:46:04,VALID,999.659,VALID,0,INVALID,163.891,VALID,0,VALID,21.8322,VALID,4,VALID,0.434766,
2010-12-31, 03:47:04,VALID,999.69,VALID,0,INVALID,163.876,VALID,0,VALID,21.8355,VALID,4,VALID,0.60625,